Flag for U.S.A. Weather past 2 weeks in Gainesville, Florida, U.S.A.

Now
89 °F

Partly sunny.


Feels Like: 92 °F
Forecast: 68 / 89 °F
Wind: 7 mph from Northwest

Location: Gainesville Regional Airport

Current Time: Jul 6, 2015 at 5:05:43 PM

Latest Report: Jul 6, 2015 at 3:53 PM


Visibility: 10 mi

Pressure: 30.11 "Hg

Humidity: 46%

Dew point: 66 °F

Location of GainesvilleLocation

Historic Weather in Gainesville — Graph

°F

Gainesville temperature yesterday

Maximum temperature yesterday: 92 °F (at 1:53 PM)
Minimum temperature yesterday: 69 °F (at 6:53 AM)
Average temperature yesterday: 75 °F

Past Weeks' High & Low Weather Summary

 TemperatureHumidityPressure
High99 °F (Jun 21, 3:53 PM)97% (Jun 23, 2:53 AM)30.19 "Hg (Jun 23, 2:53 AM)
Low66 °F (Jul 6, 5:00 AM)35% (Jun 22, 2:53 PM)29.96 "Hg (Jun 28, 3:53 AM)
Average78 °F79%30.08 "Hg
* Reported Jun 21 3:53 PM — Jul 6 3:53 PM, Gainesville, Weather by CustomWeather, © 2015

Note: Actual official high and low records may vary slightly from our data, if they occured in-between our weather recording intervals... More about our weather records

Advertising

Gainesville weather history for previous 24 hours

 ConditionsComfort  
Time TempWeatherWind HumidityBarometerVisibility
3:53 PM
Mon, Jul 6
89 °FPartly sunny.7 mph46%30.11 "Hg10 mi
2:53 PM89 °FPassing clouds.6 mph50%30.13 "Hg10 mi
1:53 PM89 °FScattered clouds.5 mph52%30.15 "Hg10 mi
12:53 PM88 °FScattered clouds.3 mph55%30.17 "Hg10 mi
11:53 AM86 °FPassing clouds.7 mph57%30.18 "Hg10 mi
10:53 AM85 °FSunny.10 mph61%30.19 "Hg10 mi
9:53 AM82 °FSunny.6 mph74%30.18 "Hg10 mi
8:53 AM76 °FSunny.No wind88%30.17 "Hg10 mi
7:53 AM70 °FSunny.No wind93%30.15 "Hg10 mi
6:53 AM66 °FClear.No wind96%30.14 "Hg10 mi
5:53 AM66 °FPassing clouds.No wind96%30.13 "Hg10 mi
5:00 AM66 °FFog.No wind96%30.13 "Hg2 mi
3:53 AM67 °FPassing clouds.No wind97%30.13 "Hg8 mi
3:03 AM68 °FFog.No wind96%30.15 "Hg1 mi
2:53 AM67 °FFog.No wind97%30.14 "Hg0 mi
2:04 AM68 °FFog.3 mph96%30.15 "Hg1 mi
2:01 AM68 °FFog.No wind96%30.15 "Hg1 mi
12:53 AM70 °FClear.No wind93%30.16 "Hg10 mi
11:53 PM
Sun, Jul 5
70 °FClear.5 mph93%30.15 "Hg10 mi
10:53 PM69 °FClear.3 mph96%30.14 "Hg10 mi
9:53 PM71 °FClear.6 mph90%30.13 "Hg10 mi
8:53 PM71 °FSunny.8 mph93%30.13 "Hg10 mi
7:53 PM72 °FSunny.3 mph91%30.16 "Hg10 mi
6:53 PM72 °FPassing clouds.7 mph91%30.17 "Hg10 mi
5:53 PM72 °FLight rain. Partly sunny.6 mph91%30.17 "Hg10 mi
5:02 PM71 °FThundershowers. Scattered clouds.10 mph90%30.15 "Hg10 mi
Weather by CustomWeather, © 2015

See weather overviewHow to use our weather pages